Watsonville, CA

1:41 PM PST on December 16, 2017 (GMT -0800)
Watsonville Municipal

Weather History for KWVI - September, 2014

Change the Weather History Date:

Wednesday, September 3, 2014

  Actual Average Record
Temperature  
Mean Temperature 66 °F 64 °F  
Max Temperature 71 °F 76 °F 95 °F (2017)
Min Temperature 60 °F 53 °F 49 °F (2004)
Degree Days  
Heating Degree Days 0    
Month to date heating degree days 0  
Since 1 July heating degree days 15  
Cooling Degree Days 1    
Month to date cooling degree days 4  
Year to date cooling degree days 204  
Growing Degree Days 16 (Base 50)    
Moisture  
Dew Point 56 °F    
Average Humidity 74    
Maximum Humidity 90    
Minimum Humidity 57    
Precipitation  
Precipitation T in - 0.01 in (1968)
Month to date precipitation T  
Year to date precipitation 8.24  
Since 1 July precipitation 0.06  
Sea Level Pressure  
Sea Level Pressure 29.79 in    
Wind  
Wind Speed 5 mph (SW)    
Max Wind Speed 15 mph    
Max Gust Speed 18 mph    
Visibility 10 miles    
Events      
T = Trace of Precipitation, MM = Missing Value Source: NWS Daily Summary

Daily Weather History Graph

Daily Weather History Graph

Search for Another Location

Airport or City:

Trip Planner

Search our weather history database for the weather conditions in past years. The results will help you decide how hot, cold, wet, or windy it might be!

Date:

Astronomy

Sep. 03, 2014 Rise Set
Actual Time 6:39 AM PDT 7:32 PM PDT
Civil Twilight 6:13 AM PDT 7:58 PM PDT
Nautical Twilight 5:41 AM PDT 8:30 PM PDT
Astronomical Twilight 5:09 AM PDT 9:02 PM PDT
Moon 3:15 PM PDT (9/3) 12:43 AM PDT (9/3)
Length of Visible Light 13h 45m
Length of Day
12h 52m
Waxing Gibbous, 65% of the Moon is Illuminated
Sep 3
Waxing Gibbous
Sep 8
Full
Sep 15
Last Quarter
Sep 23
New
Oct 1
First Quarter

Hourly Weather History & Observations

Time (PDT) Temp. Dew Point Humidity Pressure Visibility Wind Dir Wind Speed Gust Speed Precip Events Conditions
12:53 AM 61.0 °F 57.0 °F 87% 29.81 in 10.0 mi Calm Calm - N/A   Overcast
1:53 AM 61.0 °F 57.0 °F 87% 29.81 in 10.0 mi Calm Calm - 0.00 in   Overcast
2:16 AM 61.0 °F 57.0 °F 87% 29.80 in 10.0 mi Calm Calm - N/A   Overcast
2:53 AM 61.0 °F 57.0 °F 87% 29.80 in 10.0 mi Calm Calm - N/A   Overcast
3:17 AM 61.0 °F 57.0 °F 87% 29.80 in 8.0 mi Calm Calm - N/A   Overcast
3:27 AM 61.0 °F 57.0 °F 87% 29.80 in 9.0 mi Calm Calm - N/A   Overcast
3:53 AM 61.0 °F 57.0 °F 87% 29.80 in 10.0 mi South 4.6 mph - N/A   Overcast
4:53 AM 61.0 °F 57.0 °F 87% 29.80 in 9.0 mi Calm Calm - N/A   Overcast
5:53 AM 61.0 °F 55.9 °F 83% 29.80 in 10.0 mi Calm Calm - N/A   Overcast
6:53 AM 61.0 °F 55.9 °F 83% 29.81 in 10.0 mi Calm Calm - N/A   Overcast
7:36 AM 61.0 °F 55.9 °F 83% 29.82 in 10.0 mi Calm Calm - N/A   Overcast
7:53 AM 61.0 °F 55.9 °F 83% 29.82 in 10.0 mi Calm Calm - N/A   Overcast
8:37 AM 62.1 °F 55.9 °F 80% 29.82 in 10.0 mi WSW 4.6 mph - N/A   Overcast
8:53 AM 62.1 °F 57.0 °F 84% 29.83 in 10.0 mi Calm Calm - N/A   Overcast
9:53 AM 63.0 °F 55.9 °F 78% 29.84 in 10.0 mi SSW 6.9 mph - N/A   Overcast
10:53 AM 64.0 °F 55.9 °F 75% 29.84 in 10.0 mi South 8.1 mph - N/A   Overcast
11:53 AM 66.0 °F 55.9 °F 70% 29.83 in 10.0 mi SSW 9.2 mph - N/A   Overcast
12:18 PM 66.0 °F 55.9 °F 70% 29.83 in 10.0 mi SSW 9.2 mph - N/A   Overcast
12:53 PM 68.0 °F 55.9 °F 65% 29.81 in 10.0 mi SW 8.1 mph - N/A   Overcast
1:53 PM 70.0 °F 55.9 °F 61% 29.80 in 10.0 mi SSW 11.5 mph - N/A   Mostly Cloudy
2:21 PM 70.0 °F 55.9 °F 61% 29.79 in 10.0 mi SW 9.2 mph - N/A   Scattered Clouds
2:53 PM 71.1 °F 55.9 °F 59% 29.78 in 10.0 mi SW 9.2 mph - N/A   Clear
3:53 PM 71.1 °F 57.0 °F 61% 29.77 in 10.0 mi WSW 10.4 mph - N/A   Clear
4:53 PM 68.0 °F 57.0 °F 68% 29.75 in 10.0 mi SW 10.4 mph - N/A   Mostly Cloudy
5:53 PM 66.0 °F 57.0 °F 73% 29.75 in 10.0 mi SSW 8.1 mph - N/A   Mostly Cloudy
6:07 PM 66.0 °F 55.9 °F 70% 29.75 in 10.0 mi WSW 8.1 mph - N/A   Mostly Cloudy
6:53 PM 64.0 °F 55.9 °F 75% 29.75 in 10.0 mi WSW 9.2 mph - N/A   Mostly Cloudy
7:53 PM 63.0 °F 55.9 °F 78% 29.75 in 10.0 mi WSW 5.8 mph - N/A   Overcast
8:53 PM 63.0 °F 55.9 °F 78% 29.76 in 10.0 mi SW 3.5 mph - N/A   Overcast
9:53 PM 63.0 °F 57.0 °F 81% 29.76 in 10.0 mi Calm Calm - N/A   Overcast
10:20 PM 63.0 °F 57.0 °F 81% 29.76 in 10.0 mi West 3.5 mph - N/A   Overcast
10:53 PM 63.0 °F 57.0 °F 81% 29.76 in 10.0 mi NW 3.5 mph - N/A   Overcast
11:30 PM 63.0 °F 57.0 °F 81% 29.75 in 10.0 mi West 3.5 mph - N/A   Overcast
11:53 PM 63.0 °F 57.0 °F 81% 29.75 in 10.0 mi Calm Calm - N/A   Overcast